Hourly Weather Roundup
Issued by NWS Central Illinois

Home | Current Version | Previous Version | Text Only | Print | Product List | Glossary On
Versions: 1 2 3 4 5 6 7 8 9 10 11 12 13 14 15 16 17 18 19 20 21 22 23 24 25 26 27 28 29 30 31 32 33 34 35 36 37 38 39 40 41 42 43 44 45 46 47 48 49 50
000
NZUS43 KILX 252210
HWRILX

AREA WEATHER ROUNDUP
NATIONAL WEATHER SERVICE, LINCOLN IL
500 PM CDT SAT APR 25 2015


CITY           SKY/WX    TMP DP  RH WIND       PRES   REMARKS
BLOOMINGTON    CLOUDY    48  46  93 E22       29.65R
CHAMPAIGN      CLOUDY    50  46  86 E14       29.59R
DECATUR        CLOUDY    53  48  83 E15       29.58R
EFFINGHAM      LGT RAIN  53  51  92 NE6       29.55R
FLORA          DRIZZLE   55  53  95 NE6       29.53R
GALESBURG      CLOUDY    46  44  91 NE17      29.70R
JACKSONVILLE   CLOUDY    58  53  82 NE9       29.59R
LACON          CLOUDY    46  42  86 NE12      29.70R
LAWRENCEVILLE  CLOUDY    54  52  93 NE15      29.53F
LITCHFIELD     LGT RAIN  52  51  93 NE6       29.56R
$$


CITY           SKY/WX    TMP DP  RH WIND       PRES   REMARKS
LINCOLN        CLOUDY    53  48  84 NE13      29.61R
MACOMB         CLOUDY    48  46  90 NE17      29.69R
MATTOON        CLOUDY    51  49  92 E10       29.55R
MT CARMEL AP   LGT RAIN  57  54  88 NE12      29.52R
OLNEY-NOBLE AP LGT RAIN  54  52  94 NE10      29.52S
PARIS          RAIN      50  48  93 E13       29.58F
PEORIA         CLOUDY    49  43  80 NE16      29.67R
PONTIAC        CLOUDY    48  45  88 NE17      29.69R
RANTOUL        CLOUDY    50  46  86 E17G23    29.63R
ROBINSON       DRIZZLE   53  52  97 E13       29.55F
SPRINGFIELD    CLOUDY    56  50  80 NE5       29.60R
TAYLORVILLE    CLOUDY    52  50  93 NE8       29.57R
$$

...REGIONAL REPORTS...


CITY           SKY/WX    TMP DP  RH WIND       PRES   REMARKS
CHICAGO O`HARE CLOUDY    46  40  79 NE15      29.75R
KANKAKEE       CLOUDY    47  42  83 NE17G24   29.69R
MOLINE         CLOUDY    49  42  77 E16       29.73R
MOUNT VERNON   CLOUDY    64  57  77 N10G16    29.50R
PITTSFIELD     DRIZZLE   56  53  89 NE8       29.59R
QUINCY         CLOUDY    53  49  86 NE20      29.60R
ROCKFORD       CLOUDY    48  38  68 NE17G25   29.79R
$$


CITY           SKY/WX    TMP DP  RH WIND       PRES   REMARKS
BURLINGTON     CLOUDY    48  46  93 NE16      29.68R
CEDAR RAPIDS   CLOUDY    50  43  77 E16G25    29.74R
DES MOINES     CLOUDY    52  45  77 NE15G23   29.73R
KIRKSVILLE     CLOUDY    51  50  96 NE20      29.63R
OTTUMWA        CLOUDY    49  46  90 NE21G26   29.70R
ST LOUIS       LGT RAIN  58  54  86 NE10      29.54R FOG
$$


CITY           SKY/WX    TMP DP  RH WIND       PRES   REMARKS
TERRE HAUTE    LGT RAIN  49  46  90 E14       29.59R
EVANSVILLE     LGT RAIN  68  60  75 NE12      29.46F
INDIANAPOLIS   CLOUDY    46  42  86 E14       29.60S
LAFAYETTE      CLOUDY    45  42  89 E17G26    29.64R
MADISON        CLOUDY    49  32  52 NE20      29.81S
MILWAUKEE      CLOUDY    40  30  67 N16G24    29.83S WCI  31
$$




USA.gov is the U.S. government's official web portal to all federal, state and local government web resources and services.